Wind_Speed
15 22 19 17 8 8 10 9 10 9 8 3 1 2 6 8 7 5 6 10 10 17 19 21 20 19 20 19 19 19 18 17 16 14 15 16 16 16 17 17 17 17 17 17
22 16 14 9 12 12 9 9 12 10 9 3 4 3 3 3 3 2 4 7 10 14 18 22 24 23 22 22 22 21 21 21 19 16 13 12 14 16 17 16 17 17 16 14
14 13 11 11 12 11 9 6 11 3 8 3 2 5 9 7 6 4 4 3 5 9 16 19 23 24 23 21 20 19 19 18 18 18 19 18 16 14 14 15 14 13 12 13
7 11 12 10 9 8 7 8 5 2 6 1 6 6 9 10 11 8 8 7 5 8 13 17 21 25 23 21 20 19 19 18 18 16 15 14 14 15 14 13 14 15 15 14
7 14 15 15 11 11 5 7 3 5 5 3 10 6 7 9 14 11 10 10 6 8 12 15 21 24 20 18 19 18 18 18 18 18 17 16 16 17 18 19 18 18 18 17
7 16 15 17 13 11 6 9 7 8 7 6 10 12 10 11 3 6 12 12 8 8 11 14 20 19 16 17 17 16 15 15 17 19 19 19 19 18 17 17 19 19 20 21
11 15 16 16 15 13 12 13 4 1 1 6 3 12 15 8 8 9 12 12 10 12 10 13 17 15 15 18 18 15 14 15 15 17 19 20 20 20 20 19 19 20 21 21
14 9 15 14 15 10 14 14 3 6 3 2 6 9 6 7 12 13 14 12 14 12 11 13 15 14 16 19 19 18 17 17 17 16 17 19 21 22 22 22 22 22 23 25
16 11 20 15 17 13 12 13 12 4 3 3 6 11 15 15 11 10 12 11 10 12 12 14 16 15 19 19 19 20 19 19 19 18 18 19 20 22 23 23 23 24 25 27
9 7 16 16 17 16 12 8 5 6 1 3 5 9 11 8 8 5 7 7 11 14 14 15 17 19 21 22 23 22 22 20 19 19 21 22 22 23 25 27 28 28 27 28
14 10 9 16 15 16 15 14 9 6 5 3 1 4 7 7 6 4 4 8 13 15 16 18 19 20 22 24 26 25 25 25 25 26 26 26 27 27 28 29 31 32 33 31
17 10 8 14 13 16 17 17 16 8 5 6 3 8 12 10 8 8 8 11 16 16 16 17 18 23 24 26 29 28 28 29 29 30 32 32 34 35 35 36 38 37 35 36
16 10 6 3 11 18 20 22 21 19 16 13 4 6 8 8 9 12 15 17 18 18 20 22 25 26 27 28 29 28 29 31 33 34 35 36 38 40 41 41 43 44 45 44
15 15 10 7 3 5 10 15 22 22 14 16 22 21 17 15 13 16 19 21 22 23 25 27 28 27 28 30 30 30 33 36 38 39 39 41 41 43 45 46 47 47 47 49
17 13 17 17 13 11 11 12 14 20 24 19 22 21 13 13 16 19 22 23 25 26 26 28 28 28 30 31 32 34 37 40 42 42 42 44 46 49 51 52 53 53 51 49
20 13 13 15 16 16 18 19 18 19 21 24 26 28 24 23 22 22 25 28 28 28 28 29 29 30 32 34 36 39 43 46 48 46 46 48 50 51 51 51 48 47 47 46
17 18 12 8 12 13 18 24 25 24 23 20 24 22 21 23 21 21 24 26 27 28 29 29 30 32 35 38 43 47 50 50 46 45 44 45 46 48 48 49 50 50 49 47
15 17 15 7 6 2 13 16 14 12 13 17 20 19 19 18 20 23 21 21 23 25 27 29 33 38 42 45 46 46 44 44 45 45 46 47 48 50 51 52 52 51 50 51
16 16 10 7 10 14 13 16 14 11 12 13 15 16 17 18 17 17 17 19 23 26 30 35 39 42 44 46 45 45 45 46 46 47 47 47 48 50 50 51 51 51 51 50
18 20 19 12 5 6 6 9 12 13 16 11 11 14 15 16 17 16 20 24 27 31 36 39 41 44 46 44 43 44 46 47 47 47 49 51 53 55 57 58 59 58 55 54
17 19 20 19 10 9 16 15 11 10 6 5 7 8 12 16 18 20 22 27 31 35 38 41 44 43 43 45 47 47 49 51 52 54 55 56 57 58 58 58 58 59 57 54
11 10 12 14 10 11 15 14 12 10 10 13 12 10 12 15 19 23 27 31 35 38 41 43 41 41 42 45 47 49 51 55 58 60 61 60 59 58 57 56 54 52 49 47
14 18 8 11 7 8 5 9 9 14 15 15 15 15 17 20 23 27 31 35 38 41 42 41 42 43 44 47 50 55 58 60 62 62 61 60 57 53 51 50 48 45 42 40
18 20 18 14 18 20 17 14 15 15 16 18 19 20 22 24 27 32 35 38 39 38 41 44 46 48 50 53 55 57 58 58 57 57 55 53 50 48 45 43 42 41 39 38
17 17 19 22 23 20 16 15 15 17 19 20 22 23 25 27 31 34 37 36 38 41 44 46 48 50 53 55 55 54 52 51 51 49 47 45 41 39 41 39 38 38 37 36
17 19 20 21 18 16 17 18 19 19 20 22 24 26 28 32 35 35 35 37 40 43 45 48 51 53 53 52 49 46 45 46 47 47 45 42 40 42 43 41 40 37 36 35
Wind_Direction
148 143 144 144 161 149 144 170 154 150 154 146 20 87 130 116 102 67 56 49 48 35 30 26 22 14 12 11 6 2 2 360 356 345 332 324 320 319 319 319 318 320 319 313
138 142 147 161 158 143 145 157 151 155 164 177 173 173 202 165 144 79 6 30 33 28 20 19 14 9 6 3 1 0 2 4 2 359 349 338 337 337 337 342 337 333 331 330
150 153 147 141 157 159 160 165 165 168 182 137 170 251 252 242 231 228 282 331 12 18 13 10 7 2 358 356 356 356 357 1 2 0 0 0 357 349 338 328 328 330 334 333
167 163 144 152 163 171 177 177 193 178 178 148 210 291 275 255 248 239 252 280 324 355 359 359 357 353 348 347 347 349 355 356 354 356 357 355 353 353 352 353 351 350 349 344
179 172 161 174 176 175 207 193 213 189 210 259 230 260 264 256 257 258 251 265 294 335 345 348 348 349 344 337 337 338 346 347 346 345 345 345 348 349 348 347 347 345 344 343
221 185 177 192 199 202 224 201 206 227 244 272 255 222 269 262 278 263 252 258 280 307 328 334 342 345 342 337 330 328 335 339 337 335 335 337 339 342 344 343 343 344 345 346
192 192 200 206 209 212 199 181 152 297 228 230 243 210 243 244 220 271 270 251 270 292 315 324 337 337 344 340 336 331 338 335 337 333 331 331 332 334 334 334 334 334 334 335
183 183 203 203 203 207 202 200 217 201 200 264 197 231 250 243 249 250 235 231 249 274 292 312 327 324 335 347 353 341 337 331 330 337 338 338 335 332 332 330 329 328 327 327
189 194 199 201 204 207 214 220 236 260 259 268 227 258 265 273 270 245 238 244 250 265 276 304 321 321 330 342 349 347 338 332 324 330 336 339 340 338 337 334 333 332 328 325
208 180 204 209 211 217 218 224 211 221 123 278 267 271 260 291 300 279 269 252 247 254 279 308 320 321 327 333 338 337 335 334 329 328 331 331 332 333 335 336 334 331 328 325
216 215 204 212 220 221 221 224 228 232 232 196 277 260 281 298 275 279 250 237 243 263 295 312 317 321 324 327 330 330 331 331 330 329 330 330 327 326 328 329 332 330 327 323
215 222 206 214 225 229 232 233 230 227 234 226 246 279 285 280 277 239 233 240 256 280 301 304 304 309 315 319 322 322 324 322 322 322 320 321 320 322 323 324 324 322 322 322
217 219 187 195 239 237 235 238 236 235 251 255 213 267 293 294 282 245 240 246 257 272 284 293 301 305 309 314 316 315 319 318 317 314 313 314 314 315 315 316 317 318 319 318
220 225 222 217 198 212 228 246 240 232 238 249 257 273 285 294 277 256 245 250 259 275 285 293 298 301 308 312 313 313 315 317 317 315 309 308 307 307 309 310 310 308 309 309
222 237 236 241 250 252 249 251 248 241 246 251 271 280 280 269 264 252 247 255 269 278 284 292 297 303 304 306 307 306 308 310 310 306 303 302 302 303 305 305 304 301 299 299
225 241 247 249 252 256 260 258 256 248 247 251 261 270 277 277 268 258 259 267 276 282 286 292 293 294 297 300 302 304 305 304 303 297 293 293 293 294 294 295 295 295 295 294
237 235 246 258 262 264 269 262 258 259 261 265 263 280 271 274 275 266 272 277 279 280 282 285 286 290 294 297 299 301 302 303 302 301 298 296 294 294 294 293 292 291 291 292
237 231 230 252 253 261 256 262 262 256 250 254 265 275 275 275 272 275 279 281 283 285 286 287 290 293 297 300 303 304 303 302 302 301 299 297 296 295 294 294 294 293 292 290
231 232 215 217 223 265 262 269 265 263 263 271 275 274 277 282 284 286 287 288 289 290 292 296 302 306 309 310 309 307 305 304 302 300 300 300 300 300 300 299 298 298 297 294
226 227 224 210 212 228 260 263 258 260 268 284 285 283 286 284 285 289 293 294 293 296 302 306 308 309 309 307 306 306 306 304 304 304 305 305 305 305 304 303 302 299 297 295
216 226 228 231 233 255 253 256 250 237 277 284 297 288 284 278 283 287 289 292 298 304 306 307 309 310 310 309 308 308 308 307 307 306 306 306 306 305 304 302 301 299 297 294
235 226 223 219 227 250 244 234 229 258 280 294 299 291 275 277 284 292 298 302 305 306 308 308 307 306 305 304 304 306 307 308 310 311 311 311 310 309 308 306 303 300 298 294
241 235 241 228 228 247 248 233 251 267 277 291 294 296 296 297 300 301 302 303 305 306 306 305 306 307 309 310 311 311 311 312 313 313 313 313 314 313 310 307 305 301 298 296
249 248 243 256 263 259 261 265 262 267 279 288 291 294 297 298 298 299 302 304 304 305 307 310 313 313 312 312 313 313 314 314 315 316 317 317 314 313 313 311 310 306 299 296
255 257 257 260 262 264 269 278 276 279 284 288 288 287 290 294 299 303 305 306 309 311 312 312 311 311 312 313 315 316 319 320 321 321 321 321 321 324 324 321 315 309 300 299
254 260 261 266 273 270 271 275 279 282 283 282 283 289 296 303 306 308 309 311 311 310 310 310 311 313 315 316 320 322 324 325 327 326 325 325 322 322 323 323 324 322 311 303
Height
3191 3192 3194 3198 3200 3201 3205 3208 3209 3211 3213 3214 3214 3216 3217 3219 3220 3222 3221 3221 3220 3220 3218 3216 3215 3212 3211 3209 3207 3205 3202 3199 3195 3193 3190 3188 3187 3184 3183 3182 3180 3178 3177 3176
3194 3197 3199 3200 3200 3202 3203 3206 3211 3212 3213 3214 3215 3215 3215 3216 3217 3218 3217 3218 3219 3219 3219 3215 3212 3210 3208 3206 3204 3203 3199 3196 3194 3193 3191 3188 3185 3182 3180 3179 3177 3175 3174 3172
3197 3200 3201 3201 3203 3205 3205 3206 3208 3211 3212 3214 3215 3215 3213 3214 3215 3216 3216 3216 3218 3218 3217 3215 3212 3209 3207 3205 3203 3201 3198 3195 3193 3190 3188 3185 3183 3181 3179 3177 3176 3173 3172 3170
3199 3200 3202 3204 3206 3208 3208 3208 3210 3211 3212 3214 3215 3214 3210 3211 3212 3214 3214 3214 3216 3216 3215 3213 3211 3208 3206 3204 3202 3199 3196 3194 3192 3190 3188 3185 3183 3180 3177 3175 3173 3170 3168 3167
3199 3199 3202 3205 3207 3208 3209 3209 3210 3211 3212 3214 3214 3216 3206 3207 3207 3209 3211 3212 3214 3215 3214 3212 3210 3207 3205 3204 3201 3199 3195 3193 3190 3188 3186 3184 3181 3178 3175 3172 3169 3167 3165 3163
3199 3200 3202 3204 3206 3208 3209 3212 3213 3213 3214 3213 3210 3213 3204 3204 3206 3207 3208 3210 3212 3213 3212 3211 3209 3207 3205 3203 3201 3198 3194 3191 3188 3185 3183 3181 3179 3176 3174 3171 3168 3165 3163 3160
3199 3201 3202 3203 3205 3207 3210 3211 3214 3216 3216 3212 3209 3210 3202 3203 3204 3205 3206 3208 3209 3210 3210 3208 3207 3205 3204 3202 3199 3196 3192 3189 3186 3183 3180 3177 3175 3173 3171 3169 3166 3163 3160 3158
3197 3202 3202 3201 3203 3206 3207 3210 3209 3214 3214 3209 3208 3203 3199 3200 3201 3201 3203 3205 3206 3208 3207 3206 3205 3204 3202 3199 3195 3193 3190 3187 3184 3181 3178 3175 3172 3169 3167 3164 3162 3159 3156 3152
3194 3196 3198 3200 3202 3205 3206 3208 3209 3208 3207 3207 3202 3198 3197 3197 3198 3198 3200 3202 3204 3205 3205 3204 3203 3201 3198 3195 3192 3190 3188 3186 3183 3180 3176 3173 3170 3166 3163 3160 3156 3154 3151 3148
3192 3194 3196 3198 3200 3202 3204 3207 3207 3207 3209 3210 3198 3195 3193 3195 3196 3197 3198 3200 3201 3201 3202 3201 3199 3197 3194 3192 3189 3187 3185 3182 3180 3177 3174 3171 3167 3164 3160 3156 3152 3148 3146 3144
3190 3192 3195 3196 3196 3198 3201 3202 3204 3205 3204 3201 3202 3193 3192 3192 3193 3195 3196 3197 3197 3197 3197 3196 3194 3192 3191 3189 3186 3184 3181 3178 3175 3172 3169 3166 3163 3160 3156 3152 3149 3145 3141 3139
3188 3189 3189 3192 3193 3194 3196 3197 3199 3201 3201 3199 3198 3193 3190 3191 3192 3192 3193 3194 3193 3193 3193 3191 3188 3187 3186 3184 3182 3179 3176 3173 3171 3167 3164 3160 3157 3154 3150 3147 3143 3140 3136 3132
3186 3186 3187 3189 3192 3190 3190 3191 3194 3195 3197 3194 3195 3189 3188 3189 3190 3190 3190 3190 3189 3188 3188 3187 3185 3183 3181 3179 3176 3173 3171 3167 3164 3161 3157 3154 3150 3147 3143 3140 3136 3132 3128 3125
3182 3183 3184 3183 3183 3184 3184 3185 3188 3190 3191 3189 3187 3187 3187 3187 3187 3187 3186 3186 3186 3185 3184 3183 3181 3178 3176 3173 3170 3168 3165 3161 3157 3153 3149 3146 3142 3138 3134 3131 3127 3124 3120 3116
3180 3181 3182 3181 3181 3182 3182 3183 3183 3183 3184 3187 3185 3184 3185 3184 3183 3183 3183 3182 3182 3181 3179 3177 3175 3173 3170 3168 3165 3161 3157 3153 3148 3144 3141 3136 3132 3128 3124 3120 3116 3112 3109 3105
3175 3178 3179 3179 3178 3179 3179 3179 3179 3179 3178 3179 3180 3180 3181 3180 3179 3179 3179 3178 3177 3176 3175 3173 3170 3166 3163 3160 3157 3153 3149 3145 3140 3135 3131 3127 3122 3118 3114 3109 3104 3100 3097 3093
3173 3174 3177 3177 3176 3176 3175 3172 3172 3172 3172 3174 3175 3177 3177 3175 3175 3175 3175 3174 3173 3171 3169 3167 3164 3161 3157 3153 3149 3144 3139 3134 3129 3124 3120 3115 3110 3105 3101 3097 3092 3088 3084 3081
3168 3170 3173 3174 3175 3176 3167 3166 3166 3167 3168 3168 3169 3171 3172 3171 3171 3171 3170 3169 3168 3166 3164 3161 3157 3154 3149 3144 3139 3134 3128 3123 3118 3114 3109 3104 3098 3093 3088 3084 3079 3074 3070 3066
3165 3168 3168 3170 3169 3167 3166 3163 3163 3164 3165 3164 3165 3166 3167 3167 3166 3166 3165 3164 3163 3160 3157 3153 3149 3144 3138 3133 3128 3123 3117 3112 3107 3102 3097 3092 3086 3080 3075 3070 3065 3060 3055 3051
3161 3164 3167 3166 3166 3165 3160 3159 3159 3160 3161 3161 3161 3161 3162 3162 3161 3162 3160 3158 3156 3153 3149 3144 3140 3135 3130 3124 3119 3114 3108 3102 3097 3092 3087 3081 3074 3067 3060 3054 3048 3043 3039 3033
3156 3159 3160 3160 3161 3159 3156 3156 3156 3160 3161 3157 3158 3158 3158 3157 3158 3157 3155 3153 3150 3145 3141 3137 3132 3127 3120 3114 3108 3103 3097 3089 3083 3077 3072 3066 3059 3052 3045 3038 3032 3025 3020 3017
3153 3155 3154 3155 3157 3155 3152 3152 3155 3156 3154 3154 3154 3154 3155 3155 3153 3151 3148 3145 3141 3137 3132 3127 3122 3118 3113 3106 3100 3093 3086 3078 3072 3065 3058 3052 3045 3038 3030 3023 3017 3011 3005 3000
3150 3150 3150 3152 3150 3148 3149 3148 3150 3151 3151 3150 3149 3149 3149 3148 3146 3144 3141 3137 3133 3128 3124 3119 3114 3108 3103 3097 3090 3082 3074 3066 3059 3051 3043 3035 3029 3022 3015 3007 3001 2995 2991 2987
3143 3145 3144 3145 3146 3145 3146 3146 3146 3146 3146 3146 3145 3144 3143 3141 3139 3136 3132 3128 3124 3120 3114 3108 3103 3097 3091 3084 3078 3070 3061 3053 3045 3037 3030 3022 3014 3007 3002 2996 2990 2984 2980 2976
3139 3141 3140 3140 3140 3141 3142 3141 3141 3142 3141 3141 3140 3139 3137 3135 3132 3128 3124 3119 3115 3110 3105 3100 3094 3087 3080 3072 3065 3056 3048 3040 3033 3025 3018 3010 3003 2997 2991 2986 2980 2974 2971 2967
3135 3136 3136 3136 3136 3136 3137 3137 3137 3137 3137 3135 3134 3132 3130 3127 3123 3119 3115 3111 3107 3102 3096 3090 3084 3077 3068 3060 3053 3045 3038 3030 3022 3014 3008 3001 2995 2989 2983 2976 2970 2968 2962 2957